Home   Weather   Nuuk   Past weeks
Flag for Greenland

Past Weather in Nuuk, Greenland — Yesterday and Last 2 Weeks

Now
36 °F

Low clouds.


Feels Like: 29 °F
Forecast: N/A
Wind: 8 mph from Northwest

Location: Godthaab / Nuuk

Current Time: May 20, 2019 at 9:06:15 pm

Latest Report: May 20, 2019 at 7:50 pm


Visibility: N/A

Pressure: 30.15 "Hg

Humidity: 87%

Dew Point: 32 °F

Location of NuukLocation

Past Weather in Nuuk — Graph

°F

Nuuk Temperature Yesterday

Maximum temperature yesterday: 39 °F (at 4:50 pm)
Minimum temperature yesterday: 30 °F (at 1:50 am)
Average temperature yesterday: 34 °F

High & Low Weather Summary for the Past Weeks

 TemperatureHumidityPressure
High55 °F (May 7, 1:50 pm)100% (May 8, 7:50 pm)30.27 "Hg (May 8, 7:50 pm)
Low30 °F (May 10, 2:50 am)28% (May 13, 11:50 am)29.53 "Hg (May 14, 4:50 pm)
Average38 °F83%30.04 "Hg
* Reported May 5 7:50 pm — May 20 7:50 pm, Nuuk. Weather by CustomWeather, © 2019

Note: Actual official high and low records may vary slightly from our data, if they occured in-between our weather recording intervals... More about our weather records

Advertising

Nuuk Weather History for the Previous 24 Hours

Scroll right to see more
 ConditionsComfort  
Time TempWeatherWind HumidityBarometerVisibility
7:50 pm
Mon, May 20
36 °FLow clouds.8 mph87%30.15 "HgN/A
6:50 pm37 °FFog.9 mph81%30.15 "HgN/A
5:50 pm41 °FFog.8 mph76%30.15 "HgN/A
4:50 pm41 °FPassing clouds.8 mph76%30.15 "HgN/A
3:50 pm43 °FPassing clouds.8 mph71%30.15 "HgN/A
2:50 pm41 °FPassing clouds.9 mph76%30.15 "HgN/A
1:50 pm41 °FPassing clouds.10 mph76%30.15 "HgN/A
12:50 pm43 °FClear.6 mph71%30.15 "HgN/A
10:50 am37 °FFog.5 mph87%30.15 "Hg5 mi
9:50 am32 °FIce fog.8 mph100%30.15 "Hg1 mi
8:50 am32 °FIce fog.9 mph93%30.15 "Hg0 mi
7:50 am30 °FIce fog.7 mph100%30.15 "Hg0 mi
6:50 am30 °FIce fog.9 mph100%30.15 "Hg0 mi
5:50 am30 °FIce fog.8 mph100%30.15 "Hg0 mi
4:50 am30 °FSnow flurries. Ice fog.7 mph100%30.15 "Hg0 mi
3:50 am30 °FHeavy snow. Ice fog.7 mph100%30.15 "Hg0 mi
2:50 am30 °FHeavy snow. Ice fog.8 mph100%30.12 "Hg0 mi
1:50 am30 °FHeavy snow. Ice fog.8 mph100%30.15 "Hg0 mi
12:50 am32 °FLight snow. Dense fog.8 mph100%30.12 "Hg0 mi
11:50 pm
Sun, May 19
32 °FDense fog.8 mph100%30.15 "Hg2 mi
10:50 pm34 °FLow clouds.7 mph93%30.15 "HgN/A
9:50 pm34 °FPartly sunny.7 mph93%30.15 "HgN/A
Weather by CustomWeather, © 2019

See weather overview